Notices

What's New in latest Release from April 7th, 2021:

- Updated Glossary, including Speed of Maximum Gust, and Total Hourly Precipitation

- Updated national and regional climate services offices contacts and prices information

- Addition of station inventory lists for 1981-2010, 1971-2000, and 1961-1990 Normals.

If you haven't already, please take our survey and provide feedback about our website: https://eccc.sondage-survey.ca/f/LanguageSelection.aspx?s=442ca660-fcf1-47c0-95a9-59707d6fd709

Hourly Data Report for March 22, 2017

MIRAMICHI RCS
NEW BRUNSWICK

47°00'34.000" N
65°27'54.000" W
33.00 m
8100989
71744
ACQ

Download Data

Hourly Data (March 2017)
Hourly Data Report for March 22, 2017
TIME
LST
Temp Definition
°C
Dew Point Definition
°C
Rel Hum Definition
%
Precip. Amount Definition
mm

Wind Dir Definition
10's deg

Wind Spd Definition
km/h
Visibility Definition
km
Stn Press Definition
kPa
Hmdx Definition


Wind Chill Definition


Weather Definition


00:00 -5.6 -10.0 71 0.0 21 3   100.18   -7 LegendNANA
01:00 -6.4 -9.7 78 0.0   0   100.16     LegendNANA
02:00 -7.1 -10.4 77 0.0 28 1   100.15   -8 LegendNANA
03:00 -8.4 -10.9 82 0.0 26 2   100.09   -9 LegendNANA
04:00 -9.0 -10.8 87 0.0   0   100.04     LegendNANA
05:00 -9.7 -11.5 87 0.0 0 1   100.04   -10 LegendNANA
06:00 -9.1 -11.4 84 0.0 3 5   100.01   -12 LegendNANA
07:00 -8.4 -11.4 79 0.0 7 4   100.01   -11 LegendNANA
08:00 -4.5 -7.9 77 0.0 4 8   100.00   -8 LegendNANA
09:00 -2.9 -5.7 81 0.0 7 4   99.98   -4 LegendNANA
10:00 -0.6 -3.0 84 0.0 9 4   99.96   -2 LegendNANA
11:00 1.5 -0.5 87 0.0   0   99.91     LegendNANA
12:00 1.9 0.1 87 0.0 35 3   99.83     LegendNANA
13:00 0.7 -0.3 93 1.1 28 8   99.82     LegendNANA
14:00 0.7 -0.3 93 0.5 33 8   99.79     LegendNANA
15:00 0.4 -0.4 94 0.3 33 9   99.84     LegendNANA
16:00 -0.5 -2.7 85 0.0 32 18   99.90   -6 LegendNANA
17:00 -2.3 -5.3 79 0.2 33 19   100.02   -8 LegendNANA
18:00 -4.4 -7.7 78 0.0 32 21   100.17   -11 LegendNANA
19:00 -6.0 -9.4 77 0.0 33 21   100.31   -13 LegendNANA
20:00 -7.2 -10.1 80 0.0 33 20   100.44   -14 LegendNANA
21:00 -8.0 -11.6 76 0.0 33 18   100.56   -15 LegendNANA
22:00 -8.5 -12.7 72 0.0 33 20   100.67   -16 LegendNANA
23:00 -9.3 -13.2 74 0.0 33 17   100.75   -16 LegendNANA

Notes on Data Quality.

Legend

  • E = Estimated
  • M = Missing
  • NA = Not Available*
  • [empty] = Indicates an unobserved value
Date modified: